Find Starlink 4423

NORAD ID: 53209 Int'l Des: 2022-084 Owner: SPXS Country: US Constellation: starlink operational
LEOCIRCULARRETROGRADESSO

当前视图

正在加载3D地球...

About Starlink 4423

Starlink 4423 (NORAD 53209) is a starlink constellation satellite (v1.5) launched Jul 22, 2022 by SPXS of US. It operates in LEO, CIRCULAR, RETROGRADE, SSO orbit with a mass of 297.00 kg.

即将过境

Passes for default location (London). Set your location on the main map for personalized predictions.

高度历史

Loading altitude history...

两行轨道根数

1 53209U 22084W 26256.09838143 -.00000300 00000-0 -69573-5 0 9992
2 53209 97.2843 310.9761 0001362 90.6853 269.4546 15.33446887227550
Epoch: Sep 13, 2026 • Age: 16 hours

当前状态

高度 468.6 km
远地点 / 近地点 N/A
速度 7.63 km/s
星下点 0.88°N, 143.01°W
发射日期 Jul 22, 2022
运行时间 4.1 years
类型 internet

技术详情

分类 Payload
质量 297.00 kg
干质量 275.00 kg
总质量 297.00 kg
长度 0.20 m
直径 2.80 m
跨度 9.00 m
形状 Box + pan
制造商 SPXS
平台类型 Starlink
阶段状态 In Orbit
所有者/国家 SPXS/US

Most Searched